Вернуться в каталог

STARLINK-37855

АктивенСвязьSSO
NORAD 69493·PAYLOAD·🇺🇸 United States

Запущен Jun 11, 2026 с Vandenberg Space Force Base

Loading…

Ближайшие Пролёты (ближайшие 24 часа)

TLE

СвежийSource: CelesTrak SupGP

Эпоха: Sep 15, 2026, 04:32 UTC

1 69493C 26131R   26258.18937500 -.00057785  00000+0 -17942-2 0  2586
2 69493  97.2831 279.1645 0001243  90.1223 344.6691 15.33462009    11

Отслеживайте STARLINK-37855 в реальном времени с AllMySat

Download on the App Store